Location: Ceske Budejovice
(48.9830°N, 14.4670°E)
Time: 09:33:06
(UTC+02:00)

ISS - Pass Details

Date: 30 April 2024
Orbit: 409 x 414 km, 51.6° (Epoch: 21 May)

Event Time Altitude Azimuth Distance (km) Brightness Sun altitude
Exits shadow 03:50:19 35° 256° (WSW) 688 -3.1 -15.8°
Maximum altitude 03:51:35 83° 340° (NNW) 419 -3.8 -15.6°
Drops below altitude 10° 03:54:55 10° 70° (ENE) 1,479 0.0 -15.3°
Sets 03:57:00 0° 71° (ENE) 2,341 1.2 -15.0°
